Home > Weather > Tucson > Past weeks

Flag for USA Past Weather in Tucson, Arizona, USA — Yesterday and Last 2 Weeks

Now
78 °F

Passing clouds.


Feels Like: 77 °F
Forecast: 57 / 87 °F
Wind: 5 mph from South

Location: Davis-Monthan Air Force Base

Current Time: May 27, 2016 at 11:27:12 AM

Latest Report: May 27, 2016 at 10:58 AM


Visibility: 10 mi

Pressure: 29.81 "Hg (27.33 "Hg at 758m altitude)

Humidity: 15%

Dew Point: 27 °F

Location of TucsonLocation

Past Weather in Tucson — Graph

°F

Tucson Temperature Yesterday

Maximum temperature yesterday: 80 °F (at 4:58 PM)
Minimum temperature yesterday: 54 °F (at 3:58 AM)
Average temperature yesterday: 69 °F

High & Low Weather Summary for the Past Weeks

 TemperatureHumidityPressure
High97 °F (May 13, 2:58 PM)52% (May 19, 4:58 AM)29.98 "Hg (May 19, 4:58 AM)
Low54 °F (May 26, 3:58 AM)4% (May 15, 2:58 PM)29.63 "Hg (May 15, 3:58 PM)
Average76 °F21%29.80 "Hg
* Reported May 12 9:58 AM — May 27 9:58 AM, Tucson, Weather by CustomWeather, © 2016

Note: Actual official high and low records may vary slightly from our data, if they occured in-between our weather recording intervals... More about our weather records

Advertising

Tucson Weather History for the Previous 24 Hours

Scroll right to see more
 ConditionsComfort  
Time TempWeatherWind HumidityBarometerVisibility
9:58 AM
Fri, May 27
75 °FPassing clouds.3 mph17%29.82 "Hg10 mi
8:58 AM72 °FSunny.No wind19%29.85 "Hg10 mi
7:58 AM68 °FSunny.5 mph22%29.85 "Hg10 mi
6:58 AM62 °FSunny.6 mph26%29.84 "Hg10 mi
5:58 AM56 °FSunny.5 mph32%29.83 "Hg10 mi
4:58 AM56 °FClear.5 mph32%29.83 "Hg10 mi
3:58 AM57 °FClear.5 mph31%29.83 "Hg10 mi
2:58 AM59 °FClear.6 mph29%29.83 "Hg10 mi
1:58 AM60 °FClear.5 mph28%29.82 "Hg10 mi
12:58 AM60 °FClear.7 mph28%29.83 "Hg10 mi
11:58 PM
Thu, May 26
64 °FClear.6 mph25%29.84 "Hg10 mi
10:58 PM68 °FClear.5 mph22%29.84 "Hg10 mi
9:58 PM71 °FClear.8 mph20%29.83 "Hg10 mi
8:58 PM72 °FClear.10 mph20%29.82 "Hg10 mi
7:58 PM74 °FClear.10 mph17%29.80 "Hg10 mi
6:58 PM76 °FSunny.14 mph17%29.79 "Hg10 mi
5:58 PM78 °FSunny.14 mph15%29.78 "Hg10 mi
4:58 PM80 °FSunny.10 mph12%29.78 "Hg10 mi
3:58 PM79 °FSunny.7 mph11%29.80 "Hg10 mi
2:58 PM77 °FPassing clouds.7 mph12%29.81 "Hg10 mi
1:58 PM78 °FSunny.14 mph11%29.83 "Hg10 mi
12:58 PM76 °FScattered clouds.6 mph12%29.85 "Hg10 mi
11:58 AM74 °FPassing clouds.10 mph13%29.87 "Hg10 mi
Weather by CustomWeather, © 2016

See weather overviewHow to use our weather pages